Time,TemperatureF,DewpointF,PressureIn,WindDirection,WindDirectionDegrees,WindSpeedMPH,WindSpeedGustMPH,Humidity,HourlyPrecipIn,Conditions,Clouds,dailyrainin,SoftwareType,DateUTC
2013-01-12 00:00:00,39.4,34.9,29.60,North,0,0.0,0.0,84,0.00,,,0.00,meteohub,2013-01-12 08:00:00,
2013-01-12 00:05:00,39.4,34.9,29.60,North,0,0.0,0.0,84,0.00,,,0.00,meteohub,2013-01-12 08:05:00,
2013-01-12 00:10:00,39.0,34.9,29.60,NW,315,0.0,0.0,85,0.00,,,0.00,meteohub,2013-01-12 08:10:00,
2013-01-12 00:15:00,39.2,34.7,29.60,NW,315,0.0,0.0,84,0.00,,,0.00,meteohub,2013-01-12 08:15:00,
2013-01-12 00:20:00,39.2,35.1,29.60,South,180,0.0,0.0,85,0.00,,,0.00,meteohub,2013-01-12 08:20:00,
2013-01-12 00:26:00,39.4,35.2,29.60,SW,225,0.0,0.0,85,0.00,,,0.00,meteohub,2013-01-12 08:26:00,
2013-01-12 00:31:00,39.6,35.4,29.60,West,270,0.0,0.0,85,0.00,,,0.00,meteohub,2013-01-12 08:31:00,
2013-01-12 00:36:00,39.7,35.2,29.60,West,270,0.0,0.0,84,0.00,,,0.00,meteohub,2013-01-12 08:36:00,
2013-01-12 00:41:00,39.9,35.4,29.60,NW,315,0.0,0.0,84,0.00,,,0.00,meteohub,2013-01-12 08:41:00,
2013-01-12 00:46:00,39.9,35.4,29.60,NW,315,0.0,0.0,84,0.00,,,0.00,meteohub,2013-01-12 08:46:00,
2013-01-12 00:51:00,39.9,35.4,29.60,South,180,0.0,0.0,84,0.00,,,0.00,meteohub,2013-01-12 08:51:00,
2013-01-12 00:56:00,40.1,35.6,29.60,SW,225,0.0,0.0,84,0.00,,,0.00,meteohub,2013-01-12 08:56:00,
2013-01-12 01:01:00,40.3,35.6,29.60,WNW,293,0.0,0.0,83,0.00,,,0.00,meteohub,2013-01-12 09:01:00,
2013-01-12 01:06:00,40.5,35.8,29.61,West,270,0.0,0.0,83,0.00,,,0.00,meteohub,2013-01-12 09:06:00,
2013-01-12 01:11:00,40.8,36.1,29.61,SW,225,0.0,0.0,83,0.00,,,0.00,meteohub,2013-01-12 09:11:00,
2013-01-12 01:16:00,41.0,36.0,29.61,NW,315,0.0,0.0,82,0.00,,,0.00,meteohub,2013-01-12 09:16:00,
2013-01-12 01:21:00,41.2,36.1,29.61,East,90,0.0,0.0,82,0.00,,,0.00,meteohub,2013-01-12 09:21:00,
2013-01-12 01:26:00,41.4,36.3,29.61,NE,45,0.0,0.0,82,0.00,,,0.00,meteohub,2013-01-12 09:26:00,
2013-01-12 01:31:00,41.5,36.1,29.61,North,0,0.0,0.0,81,0.00,,,0.00,meteohub,2013-01-12 09:31:00,
2013-01-12 01:36:00,41.5,36.1,29.61,West,270,0.0,0.0,81,0.00,,,0.00,meteohub,2013-01-12 09:36:00,
2013-01-12 01:41:00,41.7,36.3,29.61,SW,225,0.0,0.0,81,0.00,,,0.00,meteohub,2013-01-12 09:41:00,
2013-01-12 01:46:00,41.7,36.3,29.61,NW,315,0.0,0.0,81,0.00,,,0.00,meteohub,2013-01-12 09:46:00,
2013-01-12 01:51:00,41.7,36.0,29.61,West,270,0.0,0.0,80,0.00,,,0.00,meteohub,2013-01-12 09:51:00,
2013-01-12 01:57:00,41.7,36.0,29.61,SW,225,0.0,0.0,80,0.00,,,0.00,meteohub,2013-01-12 09:57:00,
2013-01-12 02:02:00,41.7,36.0,29.62,NE,45,0.0,0.0,80,0.00,,,0.00,meteohub,2013-01-12 10:02:00,
2013-01-12 02:07:00,41.7,36.0,29.62,NE,45,0.0,0.0,80,0.00,,,0.00,meteohub,2013-01-12 10:07:00,
2013-01-12 02:12:00,41.5,35.8,29.62,SW,225,0.0,0.0,80,0.00,,,0.00,meteohub,2013-01-12 10:12:00,
2013-01-12 02:17:00,41.5,35.6,29.62,SW,225,0.0,0.0,79,0.00,,,0.00,meteohub,2013-01-12 10:17:00,
2013-01-12 02:22:00,41.4,35.4,29.62,NW,315,0.0,0.0,79,0.00,,,0.00,meteohub,2013-01-12 10:22:00,
2013-01-12 02:27:00,40.8,35.1,29.62,West,270,0.0,0.0,80,0.00,,,0.00,meteohub,2013-01-12 10:27:00,
2013-01-12 02:32:00,40.5,35.1,29.62,NW,315,0.0,0.0,81,0.00,,,0.00,meteohub,2013-01-12 10:32:00,
2013-01-12 02:37:00,40.1,34.7,29.62,East,90,0.0,0.0,81,0.00,,,0.00,meteohub,2013-01-12 10:37:00,
2013-01-12 02:42:00,39.7,34.3,29.62,NE,45,0.0,0.0,81,0.00,,,0.00,meteohub,2013-01-12 10:42:00,
2013-01-12 02:47:00,39.6,34.2,29.62,West,270,0.0,0.0,81,0.00,,,0.00,meteohub,2013-01-12 10:47:00,
2013-01-12 02:52:00,39.4,34.3,29.63,West,270,0.0,0.0,82,0.00,,,0.00,meteohub,2013-01-12 10:52:00,
2013-01-12 02:57:00,39.4,34.3,29.62,SW,225,0.0,0.0,82,0.00,,,0.00,meteohub,2013-01-12 10:57:00,
2013-01-12 03:02:00,39.6,34.5,29.62,NW,315,0.0,0.0,82,0.00,,,0.00,meteohub,2013-01-12 11:02:00,
2013-01-12 03:07:00,39.7,34.7,29.62,West,270,0.0,0.0,82,0.00,,,0.00,meteohub,2013-01-12 11:07:00,
2013-01-12 03:12:00,39.7,34.7,29.62,West,270,0.0,0.0,82,0.00,,,0.00,meteohub,2013-01-12 11:12:00,
2013-01-12 03:17:00,39.7,34.3,29.62,West,270,0.0,0.0,81,0.00,,,0.00,meteohub,2013-01-12 11:17:00,
2013-01-12 03:22:00,39.6,34.2,29.62,North,0,0.0,0.0,81,0.00,,,0.00,meteohub,2013-01-12 11:22:00,
2013-01-12 03:27:00,39.6,34.2,29.62,SW,225,0.0,0.0,81,0.00,,,0.00,meteohub,2013-01-12 11:27:00,
2013-01-12 03:32:00,39.4,34.0,29.63,NW,315,0.0,0.0,81,0.00,,,0.00,meteohub,2013-01-12 11:32:00,
2013-01-12 03:37:00,39.4,34.0,29.63,SW,225,0.0,0.0,81,0.00,,,0.00,meteohub,2013-01-12 11:37:00,
2013-01-12 03:42:00,39.2,33.8,29.63,West,270,0.0,0.0,81,0.00,,,0.00,meteohub,2013-01-12 11:42:00,
2013-01-12 03:47:00,39.2,33.8,29.63,West,270,0.0,0.0,81,0.00,,,0.00,meteohub,2013-01-12 11:47:00,
2013-01-12 03:52:00,39.0,33.6,29.62,West,270,0.0,0.0,81,0.00,,,0.00,meteohub,2013-01-12 11:52:00,
2013-01-12 03:57:00,39.0,33.6,29.62,WNW,293,0.0,0.0,81,0.00,,,0.00,meteohub,2013-01-12 11:57:00,
2013-01-12 04:02:00,39.0,33.6,29.63,West,270,0.0,0.0,81,0.00,,,0.00,meteohub,2013-01-12 12:02:00,
2013-01-12 04:07:00,39.0,33.6,29.63,West,270,0.0,0.0,81,0.00,,,0.00,meteohub,2013-01-12 12:07:00,
2013-01-12 04:12:00,39.4,33.1,29.63,East,90,0.0,0.0,78,0.00,,,0.00,meteohub,2013-01-12 12:12:00,
2013-01-12 04:17:00,39.4,32.7,29.63,West,270,0.0,0.0,77,0.00,,,0.00,meteohub,2013-01-12 12:17:00,
2013-01-12 04:22:00,39.7,32.7,29.63,NW,315,0.0,0.0,76,0.00,,,0.00,meteohub,2013-01-12 12:22:00,
2013-01-12 04:27:00,39.9,32.7,29.63,West,270,0.0,0.0,75,0.00,,,0.00,meteohub,2013-01-12 12:27:00,
2013-01-12 04:32:00,40.1,32.5,29.62,West,270,0.0,0.0,74,0.00,,,0.00,meteohub,2013-01-12 12:32:00,
2013-01-12 04:37:00,40.1,32.5,29.63,SW,225,0.0,0.0,74,0.00,,,0.00,meteohub,2013-01-12 12:37:00,
2013-01-12 04:42:00,40.3,32.4,29.63,NW,315,0.0,0.0,73,0.00,,,0.00,meteohub,2013-01-12 12:42:00,
2013-01-12 04:47:00,40.3,32.4,29.63,NW,315,0.0,0.0,73,0.00,,,0.00,meteohub,2013-01-12 12:47:00,
2013-01-12 04:52:00,40.3,32.0,29.63,West,270,0.0,0.0,72,0.00,,,0.00,meteohub,2013-01-12 12:52:00,
2013-01-12 04:57:00,40.5,32.2,29.63,North,0,0.0,0.0,72,0.00,,,0.00,meteohub,2013-01-12 12:57:00,
2013-01-12 05:02:00,40.3,32.0,29.63,West,270,0.0,0.0,72,0.00,,,0.00,meteohub,2013-01-12 13:02:00,
2013-01-12 05:07:00,40.3,31.6,29.63,East,90,0.0,0.0,71,0.00,,,0.00,meteohub,2013-01-12 13:07:00,
2013-01-12 05:12:00,40.3,31.6,29.63,East,90,0.0,0.0,71,0.00,,,0.00,meteohub,2013-01-12 13:12:00,
2013-01-12 05:17:00,39.9,31.3,29.63,WNW,293,0.0,0.0,71,0.00,,,0.00,meteohub,2013-01-12 13:17:00,
2013-01-12 05:22:00,39.7,31.1,29.63,WNW,293,0.0,0.0,71,0.00,,,0.00,meteohub,2013-01-12 13:22:00,
2013-01-12 05:27:00,39.4,31.1,29.63,WNW,293,0.0,0.0,72,0.00,,,0.00,meteohub,2013-01-12 13:27:00,
2013-01-12 05:32:00,39.0,31.1,29.64,WNW,293,0.0,0.0,73,0.00,,,0.00,meteohub,2013-01-12 13:32:00,
2013-01-12 05:37:00,38.5,30.9,29.64,WNW,293,0.0,0.0,74,0.00,,,0.00,meteohub,2013-01-12 13:37:00,
2013-01-12 05:42:00,38.1,30.6,29.64,East,90,0.0,0.0,74,0.00,,,0.00,meteohub,2013-01-12 13:42:00,
2013-01-12 05:47:00,37.6,30.4,29.64,East,90,0.0,0.0,75,0.00,,,0.00,meteohub,2013-01-12 13:47:00,
2013-01-12 05:52:00,37.2,28.8,29.64,East,90,0.0,0.0,71,0.00,,,0.00,meteohub,2013-01-12 13:52:00,
2013-01-12 05:57:00,36.9,28.4,29.65,East,90,0.0,0.0,71,0.00,,,0.00,meteohub,2013-01-12 13:57:00,
2013-01-12 06:02:00,36.7,28.6,29.65,East,90,0.0,0.0,72,0.00,,,0.00,meteohub,2013-01-12 14:02:00,
2013-01-12 06:07:00,36.7,28.6,29.65,East,90,0.0,0.0,72,0.00,,,0.00,meteohub,2013-01-12 14:07:00,
2013-01-12 06:12:00,36.0,28.2,29.65,East,90,0.0,0.0,73,0.00,,,0.00,meteohub,2013-01-12 14:12:00,
2013-01-12 06:17:00,35.6,27.9,29.65,East,90,0.0,0.0,73,0.00,,,0.00,meteohub,2013-01-12 14:17:00,
2013-01-12 06:22:00,35.4,28.2,29.66,East,90,0.0,0.0,75,0.00,,,0.00,meteohub,2013-01-12 14:22:00,
2013-01-12 06:27:00,35.2,28.0,29.66,East,90,0.0,0.0,75,0.00,,,0.00,meteohub,2013-01-12 14:27:00,
2013-01-12 06:32:00,35.1,28.2,29.66,East,90,0.0,0.0,76,0.00,,,0.00,meteohub,2013-01-12 14:32:00,
2013-01-12 06:37:00,34.9,28.0,29.67,East,90,0.0,0.0,76,0.00,,,0.00,meteohub,2013-01-12 14:37:00,
2013-01-12 06:42:00,34.7,27.9,29.67,East,90,0.0,0.0,76,0.00,,,0.00,meteohub,2013-01-12 14:42:00,
2013-01-12 06:47:00,34.5,28.0,29.67,East,90,0.0,0.0,77,0.00,,,0.00,meteohub,2013-01-12 14:47:00,
2013-01-12 06:52:00,34.3,27.9,29.67,East,90,0.0,0.0,77,0.00,,,0.00,meteohub,2013-01-12 14:52:00,
2013-01-12 06:57:00,34.2,28.0,29.68,East,90,0.0,0.0,78,0.00,,,0.00,meteohub,2013-01-12 14:57:00,
2013-01-12 07:02:00,34.2,28.0,29.68,East,90,0.0,0.0,78,0.00,,,0.00,meteohub,2013-01-12 15:02:00,
2013-01-12 07:07:00,34.0,27.9,29.68,East,90,0.0,0.0,78,0.00,,,0.00,meteohub,2013-01-12 15:07:00,
2013-01-12 07:12:00,33.8,28.0,29.68,East,90,0.0,0.0,79,0.00,,,0.00,meteohub,2013-01-12 15:12:00,
2013-01-12 07:17:00,33.6,28.0,29.68,East,90,0.0,0.0,80,0.00,,,0.00,meteohub,2013-01-12 15:17:00,
2013-01-12 07:22:00,33.3,27.7,29.68,East,90,0.0,0.0,80,0.00,,,0.00,meteohub,2013-01-12 15:22:00,
2013-01-12 07:27:00,33.1,27.5,29.69,East,90,0.0,0.0,80,0.00,,,0.00,meteohub,2013-01-12 15:27:00,
2013-01-12 07:32:00,33.1,27.5,29.69,East,90,0.0,0.0,80,0.00,,,0.00,meteohub,2013-01-12 15:32:00,
2013-01-12 07:37:00,33.1,27.5,29.70,East,90,0.0,0.0,80,0.00,,,0.00,meteohub,2013-01-12 15:37:00,
2013-01-12 07:42:00,32.9,27.5,29.70,East,90,0.0,0.0,80,0.00,,,0.00,meteohub,2013-01-12 15:42:00,
2013-01-12 07:47:00,32.9,27.5,29.70,East,90,0.0,0.0,80,0.00,,,0.00,meteohub,2013-01-12 15:47:00,
2013-01-12 07:52:00,32.7,27.5,29.70,East,90,0.0,0.0,81,0.00,,,0.00,meteohub,2013-01-12 15:52:00,
2013-01-12 07:57:00,32.5,27.3,29.69,East,90,0.0,0.0,81,0.00,,,0.00,meteohub,2013-01-12 15:57:00,
2013-01-12 08:02:00,32.5,27.3,29.70,East,90,0.0,0.0,81,0.00,,,0.00,meteohub,2013-01-12 16:02:00,
2013-01-12 08:07:00,32.5,27.3,29.70,East,90,0.0,0.0,81,0.00,,,0.00,meteohub,2013-01-12 16:07:00,
2013-01-12 08:12:00,32.7,27.5,29.70,East,90,0.0,0.0,81,0.00,,,0.00,meteohub,2013-01-12 16:12:00,
2013-01-12 08:17:00,32.9,28.0,29.70,East,90,0.0,0.0,82,0.00,,,0.00,meteohub,2013-01-12 16:17:00,
2013-01-12 08:22:00,32.9,28.0,29.70,East,90,0.0,0.0,82,0.00,,,0.00,meteohub,2013-01-12 16:22:00,
2013-01-12 08:27:00,33.1,28.2,29.70,East,90,0.0,0.0,82,0.00,,,0.00,meteohub,2013-01-12 16:27:00,
2013-01-12 08:32:00,33.1,28.2,29.70,East,90,0.0,0.0,82,0.00,,,0.00,meteohub,2013-01-12 16:32:00,
2013-01-12 08:37:00,33.3,28.4,29.70,East,90,0.0,0.0,82,0.00,,,0.00,meteohub,2013-01-12 16:37:00,
2013-01-12 08:42:00,33.4,28.8,29.70,East,90,0.0,0.0,83,0.00,,,0.00,meteohub,2013-01-12 16:42:00,
2013-01-12 08:47:00,33.6,28.9,29.70,East,90,0.0,0.0,83,0.00,,,0.00,meteohub,2013-01-12 16:47:00,
2013-01-12 08:52:00,33.8,28.9,29.70,East,90,0.0,0.0,82,0.00,,,0.00,meteohub,2013-01-12 16:52:00,
2013-01-12 08:57:00,34.2,29.3,29.70,East,90,0.0,0.0,82,0.00,,,0.00,meteohub,2013-01-12 16:57:00,
2013-01-12 09:02:00,34.7,30.0,29.70,East,90,0.0,0.0,83,0.00,,,0.00,meteohub,2013-01-12 17:02:00,
2013-01-12 09:07:00,35.2,30.6,29.70,East,90,0.0,0.0,83,0.00,,,0.00,meteohub,2013-01-12 17:07:00,
2013-01-12 09:12:00,35.8,30.7,29.70,East,90,0.0,0.0,82,0.00,,,0.00,meteohub,2013-01-12 17:12:00,
2013-01-12 09:17:00,36.3,31.3,29.70,East,90,0.0,0.0,82,0.00,,,0.00,meteohub,2013-01-12 17:17:00,
2013-01-12 09:22:00,36.9,31.6,29.70,SW,225,0.0,0.0,81,0.00,,,0.00,meteohub,2013-01-12 17:22:00,
2013-01-12 09:27:00,37.4,33.3,29.70,SW,225,0.0,0.0,85,0.00,,,0.00,meteohub,2013-01-12 17:27:00,
2013-01-12 09:32:00,37.9,33.8,29.70,SW,225,0.0,0.0,85,0.00,,,0.00,meteohub,2013-01-12 17:32:00,
2013-01-12 09:37:00,38.7,34.2,29.70,NW,315,0.0,0.0,84,0.00,,,0.00,meteohub,2013-01-12 17:37:00,
2013-01-12 09:42:00,39.2,34.2,29.70,SW,225,0.0,0.0,82,0.00,,,0.00,meteohub,2013-01-12 17:42:00,
2013-01-12 09:47:00,39.7,34.3,29.70,NW,315,0.0,0.0,81,0.00,,,0.00,meteohub,2013-01-12 17:47:00,
2013-01-12 09:52:00,40.3,34.3,29.70,North,0,0.0,0.0,79,0.00,,,0.00,meteohub,2013-01-12 17:52:00,
2013-01-12 09:57:00,41.0,33.6,29.70,SSE,158,0.0,0.0,75,0.00,,,0.00,meteohub,2013-01-12 17:57:00,
2013-01-12 10:02:00,41.4,33.6,29.70,SSE,158,0.0,0.0,74,0.00,,,0.00,meteohub,2013-01-12 18:02:00,
2013-01-12 10:07:00,41.4,33.6,29.70,SSE,158,0.0,0.0,74,0.00,,,0.00,meteohub,2013-01-12 18:07:00,
2013-01-12 10:12:00,42.3,33.6,29.70,North,0,0.0,0.0,71,0.00,,,0.00,meteohub,2013-01-12 18:12:00,
2013-01-12 10:17:00,42.6,33.4,29.69,NE,45,0.0,0.0,70,0.00,,,0.00,meteohub,2013-01-12 18:17:00,
2013-01-12 10:22:00,43.2,33.3,29.69,SW,225,0.0,0.0,68,0.00,,,0.00,meteohub,2013-01-12 18:22:00,
2013-01-12 10:27:00,43.3,32.7,29.69,NNW,338,0.0,0.0,66,0.00,,,0.00,meteohub,2013-01-12 18:27:00,
2013-01-12 10:32:00,43.9,32.9,29.69,East,90,0.0,0.0,65,0.00,,,0.00,meteohub,2013-01-12 18:32:00,
2013-01-12 10:37:00,44.6,32.7,29.69,NW,315,0.0,0.0,63,0.00,,,0.00,meteohub,2013-01-12 18:37:00,
2013-01-12 10:42:00,45.1,32.5,29.69,SW,225,0.0,0.0,61,0.00,,,0.00,meteohub,2013-01-12 18:42:00,
2013-01-12 10:47:00,45.5,32.4,29.69,NW,315,0.0,0.0,60,0.00,,,0.00,meteohub,2013-01-12 18:47:00,
2013-01-12 10:52:00,46.0,32.5,29.68,West,270,0.0,0.0,59,0.00,,,0.00,meteohub,2013-01-12 18:52:00,
2013-01-12 10:57:00,47.7,33.3,29.68,NW,315,0.0,0.0,57,0.00,,,0.00,meteohub,2013-01-12 18:57:00,
2013-01-12 11:02:00,49.1,33.3,29.68,NE,45,0.0,0.0,54,0.00,,,0.00,meteohub,2013-01-12 19:02:00,
2013-01-12 11:07:00,50.4,33.8,29.68,West,270,0.0,0.0,53,0.00,,,0.00,meteohub,2013-01-12 19:07:00,
2013-01-12 11:12:00,51.6,34.2,29.68,NE,45,0.0,0.0,51,0.00,,,0.00,meteohub,2013-01-12 19:12:00,
2013-01-12 11:17:00,52.9,34.2,29.67,East,90,0.0,0.0,49,0.00,,,0.00,meteohub,2013-01-12 19:17:00,
2013-01-12 11:22:00,53.2,36.1,29.67,SE,135,0.0,0.0,52,0.00,,,0.00,meteohub,2013-01-12 19:22:00,
2013-01-12 11:27:00,53.1,36.3,29.67,East,90,0.0,0.0,53,0.00,,,0.00,meteohub,2013-01-12 19:27:00,
2013-01-12 11:32:00,52.9,36.7,29.66,South,180,0.0,0.0,54,0.00,,,0.00,meteohub,2013-01-12 19:32:00,
2013-01-12 11:37:00,53.1,36.9,29.65,SE,135,0.0,0.0,54,0.00,,,0.00,meteohub,2013-01-12 19:37:00,
2013-01-12 11:42:00,52.7,35.6,29.65,SE,135,0.0,0.0,52,0.00,,,0.00,meteohub,2013-01-12 19:42:00,
2013-01-12 11:47:00,52.9,35.8,29.65,East,90,0.0,0.0,52,0.00,,,0.00,meteohub,2013-01-12 19:47:00,
2013-01-12 11:52:00,52.9,36.7,29.65,SSE,158,0.0,0.0,54,0.00,,,0.00,meteohub,2013-01-12 19:52:00,
2013-01-12 11:57:00,52.9,36.7,29.65,East,90,0.0,0.0,54,0.00,,,0.00,meteohub,2013-01-12 19:57:00,
2013-01-12 12:02:00,52.5,36.0,29.64,NE,45,0.0,0.0,53,0.00,,,0.00,meteohub,2013-01-12 20:02:00,
2013-01-12 12:07:00,52.9,37.2,29.63,SE,135,0.0,0.0,55,0.00,,,0.00,meteohub,2013-01-12 20:07:00,
2013-01-12 12:12:00,53.2,36.5,29.63,SE,135,0.0,0.0,53,0.00,,,0.00,meteohub,2013-01-12 20:12:00,
2013-01-12 12:17:00,53.2,36.1,29.63,SE,135,0.0,0.0,52,0.00,,,0.00,meteohub,2013-01-12 20:17:00,
2013-01-12 12:22:00,52.9,34.7,29.62,SE,135,0.0,0.0,50,0.00,,,0.00,meteohub,2013-01-12 20:22:00,
2013-01-12 12:27:00,52.9,35.2,29.62,NE,45,0.0,0.0,51,0.00,,,0.00,meteohub,2013-01-12 20:27:00,
2013-01-12 12:32:00,53.6,34.9,29.62,SE,135,0.0,0.0,49,0.00,,,0.00,meteohub,2013-01-12 20:32:00,
2013-01-12 12:37:00,53.4,35.2,29.62,SW,225,0.0,0.0,50,0.00,,,0.00,meteohub,2013-01-12 20:37:00,
2013-01-12 12:42:00,54.0,35.2,29.61,East,90,0.0,0.0,49,0.00,,,0.00,meteohub,2013-01-12 20:42:00,
2013-01-12 12:47:00,53.8,35.1,29.60,SE,135,0.0,0.0,49,0.00,,,0.00,meteohub,2013-01-12 20:47:00,
2013-01-12 12:52:00,53.6,33.8,29.60,South,180,0.0,0.0,47,0.00,,,0.00,meteohub,2013-01-12 20:52:00,
2013-01-12 12:57:00,53.6,33.3,29.60,NE,45,0.0,0.0,46,0.00,,,0.00,meteohub,2013-01-12 20:57:00,
2013-01-12 13:03:00,53.8,34.0,29.59,SE,135,0.0,0.0,47,0.00,,,0.00,meteohub,2013-01-12 21:03:00,
2013-01-12 13:08:00,54.0,33.6,29.60,SE,135,0.0,0.0,46,0.00,,,0.00,meteohub,2013-01-12 21:08:00,
2013-01-12 13:13:00,54.3,34.0,29.59,South,180,0.0,0.0,46,0.00,,,0.00,meteohub,2013-01-12 21:13:00,
2013-01-12 13:18:00,54.5,34.2,29.59,SE,135,0.0,0.0,46,0.00,,,0.00,meteohub,2013-01-12 21:18:00,
2013-01-12 13:23:00,54.5,33.6,29.58,East,90,0.0,0.0,45,0.00,,,0.00,meteohub,2013-01-12 21:23:00,
2013-01-12 13:28:00,54.7,34.3,29.57,SE,135,0.0,0.0,46,0.00,,,0.00,meteohub,2013-01-12 21:28:00,
2013-01-12 13:33:00,55.0,34.7,29.57,East,90,0.0,0.0,46,0.00,,,0.00,meteohub,2013-01-12 21:33:00,
2013-01-12 13:38:00,55.4,33.8,29.57,East,90,0.0,0.0,44,0.00,,,0.00,meteohub,2013-01-12 21:38:00,
2013-01-12 13:43:00,54.9,33.4,29.57,SSE,158,0.0,0.0,44,0.00,,,0.00,meteohub,2013-01-12 21:43:00,
2013-01-12 13:48:00,54.7,33.3,29.57,SE,135,0.0,0.0,44,0.00,,,0.00,meteohub,2013-01-12 21:48:00,
2013-01-12 13:54:00,54.5,33.6,29.57,East,90,0.0,0.0,45,0.00,,,0.00,meteohub,2013-01-12 21:54:00,
2013-01-12 13:59:00,54.3,34.0,29.57,SE,135,0.0,0.0,46,0.00,,,0.00,meteohub,2013-01-12 21:59:00,
2013-01-12 14:04:00,54.1,33.8,29.57,SE,135,0.0,0.0,46,0.00,,,0.00,meteohub,2013-01-12 22:04:00,
2013-01-12 14:09:00,54.5,34.7,29.56,SE,135,0.0,0.0,47,0.00,,,0.00,meteohub,2013-01-12 22:09:00,
2013-01-12 14:14:00,54.9,34.5,29.56,SSE,158,0.0,0.0,46,0.00,,,0.00,meteohub,2013-01-12 22:14:00,
2013-01-12 14:19:00,54.7,34.3,29.56,SE,135,0.0,0.0,46,0.00,,,0.00,meteohub,2013-01-12 22:19:00,
2013-01-12 14:24:00,54.5,34.7,29.56,SE,135,0.0,0.0,47,0.00,,,0.00,meteohub,2013-01-12 22:24:00,
2013-01-12 14:29:00,54.7,34.9,29.56,West,270,0.0,0.0,47,0.00,,,0.00,meteohub,2013-01-12 22:29:00,
2013-01-12 14:34:00,54.7,34.9,29.56,East,90,0.0,0.0,47,0.00,,,0.00,meteohub,2013-01-12 22:34:00,
2013-01-12 14:39:00,54.7,35.4,29.55,ENE,68,0.0,0.0,48,0.00,,,0.00,meteohub,2013-01-12 22:39:00,
2013-01-12 14:45:00,54.7,34.9,29.56,ESE,113,0.0,0.0,47,0.00,,,0.00,meteohub,2013-01-12 22:45:00,
2013-01-12 14:50:00,54.9,35.1,29.55,ENE,68,0.0,0.0,47,0.00,,,0.00,meteohub,2013-01-12 22:50:00,
2013-01-12 14:55:00,54.9,35.1,29.55,SE,135,0.0,0.0,47,0.00,,,0.00,meteohub,2013-01-12 22:55:00,
2013-01-12 15:00:00,55.2,35.4,29.55,East,90,0.0,0.0,47,0.00,,,0.00,meteohub,2013-01-12 23:00:00,
2013-01-12 15:05:00,54.9,35.1,29.55,SE,135,0.0,0.0,47,0.00,,,0.00,meteohub,2013-01-12 23:05:00,
2013-01-12 15:10:00,55.0,35.8,29.54,SE,135,0.0,0.0,48,0.00,,,0.00,meteohub,2013-01-12 23:10:00,
2013-01-12 15:15:00,55.2,36.0,29.54,East,90,0.0,0.0,48,0.00,,,0.00,meteohub,2013-01-12 23:15:00,
2013-01-12 15:20:00,55.4,35.4,29.55,East,90,0.0,0.0,47,0.00,,,0.00,meteohub,2013-01-12 23:20:00,
2013-01-12 15:25:00,55.6,35.1,29.54,SE,135,0.0,0.0,46,0.00,,,0.00,meteohub,2013-01-12 23:25:00,
2013-01-12 15:31:00,55.4,34.9,29.54,SE,135,0.0,0.0,46,0.00,,,0.00,meteohub,2013-01-12 23:31:00,
2013-01-12 15:36:00,54.5,34.2,29.54,South,180,0.0,0.0,46,0.00,,,0.00,meteohub,2013-01-12 23:36:00,
2013-01-12 15:41:00,53.6,33.8,29.54,SE,135,0.0,0.0,47,0.00,,,0.00,meteohub,2013-01-12 23:41:00,
2013-01-12 15:46:00,53.4,34.7,29.54,East,90,0.0,0.0,49,0.00,,,0.00,meteohub,2013-01-12 23:46:00,
2013-01-12 15:51:00,53.1,33.8,29.53,East,90,0.0,0.0,48,0.00,,,0.00,meteohub,2013-01-12 23:51:00,
2013-01-12 15:56:00,52.7,33.6,29.54,East,90,0.0,0.0,48,0.00,,,0.00,meteohub,2013-01-12 23:56:00,
2013-01-12 16:01:00,52.3,33.8,29.54,SE,135,0.0,0.0,49,0.00,,,0.00,meteohub,2013-01-13 00:01:00,
2013-01-12 16:06:00,52.3,33.8,29.53,SE,135,0.0,0.0,49,0.00,,,0.00,meteohub,2013-01-13 00:06:00,
2013-01-12 16:12:00,50.0,32.5,29.53,East,90,0.0,0.0,51,0.00,,,0.00,meteohub,2013-01-13 00:12:00,
2013-01-12 16:17:00,49.3,32.4,29.53,East,90,0.0,0.0,52,0.00,,,0.00,meteohub,2013-01-13 00:17:00,
2013-01-12 16:22:00,48.9,32.5,29.53,East,90,0.0,0.0,53,0.00,,,0.00,meteohub,2013-01-13 00:22:00,
2013-01-12 16:27:00,48.6,32.2,29.53,East,90,0.0,0.0,53,0.00,,,0.00,meteohub,2013-01-13 00:27:00,
2013-01-12 16:32:00,48.0,32.2,29.53,East,90,0.0,0.0,54,0.00,,,0.00,meteohub,2013-01-13 00:32:00,
2013-01-12 16:37:00,47.8,32.5,29.54,East,90,0.0,0.0,55,0.00,,,0.00,meteohub,2013-01-13 00:37:00,
2013-01-12 16:42:00,47.5,32.2,29.53,East,90,0.0,0.0,55,0.00,,,0.00,meteohub,2013-01-13 00:42:00,
2013-01-12 16:47:00,47.1,31.8,29.54,East,90,0.0,0.0,55,0.00,,,0.00,meteohub,2013-01-13 00:47:00,
2013-01-12 16:52:00,46.8,31.8,29.53,SE,135,0.0,0.0,56,0.00,,,0.00,meteohub,2013-01-13 00:52:00,
2013-01-12 16:58:00,46.4,32.0,29.54,SE,135,0.0,0.0,57,0.00,,,0.00,meteohub,2013-01-13 00:58:00,
2013-01-12 17:03:00,46.0,32.0,29.54,SE,135,0.0,0.0,58,0.00,,,0.00,meteohub,2013-01-13 01:03:00,
2013-01-12 17:08:00,45.5,31.6,29.54,SE,135,0.0,0.0,58,0.00,,,0.00,meteohub,2013-01-13 01:08:00,
2013-01-12 17:13:00,45.1,31.3,29.54,SE,135,0.0,0.0,58,0.00,,,0.00,meteohub,2013-01-13 01:13:00,
2013-01-12 17:18:00,44.8,31.3,29.54,SE,135,0.0,0.0,59,0.00,,,0.00,meteohub,2013-01-13 01:18:00,
2013-01-12 17:23:00,44.4,31.5,29.55,SE,135,0.0,0.0,60,0.00,,,0.00,meteohub,2013-01-13 01:23:00,
2013-01-12 17:28:00,44.1,31.1,29.55,SE,135,0.0,0.0,60,0.00,,,0.00,meteohub,2013-01-13 01:28:00,
2013-01-12 17:33:00,43.9,31.3,29.55,SE,135,0.0,0.0,61,0.00,,,0.00,meteohub,2013-01-13 01:33:00,
2013-01-12 17:38:00,43.7,31.1,29.55,SE,135,0.0,0.0,61,0.00,,,0.00,meteohub,2013-01-13 01:38:00,
2013-01-12 17:44:00,43.5,31.3,29.55,SW,225,0.0,0.0,62,0.00,,,0.00,meteohub,2013-01-13 01:44:00,
2013-01-12 17:49:00,43.3,31.3,29.56,SW,225,0.0,0.0,62,0.00,,,0.00,meteohub,2013-01-13 01:49:00,
2013-01-12 17:54:00,43.2,31.1,29.56,SW,225,0.0,0.0,62,0.00,,,0.00,meteohub,2013-01-13 01:54:00,
2013-01-12 17:59:00,43.0,31.3,29.57,SW,225,0.0,0.0,63,0.00,,,0.00,meteohub,2013-01-13 01:59:00,
2013-01-12 18:04:00,43.0,31.3,29.57,SW,225,0.0,0.0,63,0.00,,,0.00,meteohub,2013-01-13 02:04:00,
2013-01-12 18:09:00,42.6,31.3,29.57,SW,225,0.0,0.0,64,0.00,,,0.00,meteohub,2013-01-13 02:09:00,
2013-01-12 18:14:00,42.4,31.1,29.57,SW,225,0.0,0.0,64,0.00,,,0.00,meteohub,2013-01-13 02:14:00,
2013-01-12 18:19:00,42.4,31.1,29.58,SW,225,0.0,0.0,64,0.00,,,0.00,meteohub,2013-01-13 02:19:00,
2013-01-12 18:24:00,42.3,31.3,29.58,SW,225,0.0,0.0,65,0.00,,,0.00,meteohub,2013-01-13 02:24:00,
2013-01-12 18:29:00,42.1,31.1,29.58,SW,225,0.0,0.0,65,0.00,,,0.00,meteohub,2013-01-13 02:29:00,
2013-01-12 18:34:00,41.9,30.9,29.58,SW,225,0.0,0.0,65,0.00,,,0.00,meteohub,2013-01-13 02:34:00,
2013-01-12 18:40:00,41.7,31.3,29.59,SW,225,0.0,0.0,66,0.00,,,0.00,meteohub,2013-01-13 02:40:00,
2013-01-12 18:45:00,41.7,31.3,29.58,SW,225,0.0,0.0,66,0.00,,,0.00,meteohub,2013-01-13 02:45:00,
2013-01-12 18:50:00,41.5,31.5,29.59,SW,225,0.0,0.0,67,0.00,,,0.00,meteohub,2013-01-13 02:50:00,
2013-01-12 18:55:00,41.4,31.3,29.59,SW,225,0.0,0.0,67,0.00,,,0.00,meteohub,2013-01-13 02:55:00,
2013-01-12 19:00:00,41.2,31.5,29.59,SW,225,0.0,0.0,68,0.00,,,0.00,meteohub,2013-01-13 03:00:00,
2013-01-12 19:05:00,41.2,31.8,29.59,West,270,0.0,0.0,69,0.00,,,0.00,meteohub,2013-01-13 03:05:00,
2013-01-12 19:10:00,41.2,31.8,29.59,WSW,248,0.0,0.0,69,0.00,,,0.00,meteohub,2013-01-13 03:10:00,
2013-01-12 19:15:00,41.2,31.8,29.59,WSW,248,0.0,0.0,69,0.00,,,0.00,meteohub,2013-01-13 03:15:00,
2013-01-12 19:20:00,41.2,32.2,29.60,WSW,248,0.0,0.0,70,0.00,,,0.00,meteohub,2013-01-13 03:20:00,
2013-01-12 19:25:00,41.2,32.2,29.60,WSW,248,0.0,0.0,70,0.00,,,0.00,meteohub,2013-01-13 03:25:00,
2013-01-12 19:30:00,41.0,32.0,29.60,WSW,248,0.0,0.0,70,0.00,,,0.00,meteohub,2013-01-13 03:30:00,
2013-01-12 19:35:00,41.0,32.0,29.60,WSW,248,0.0,0.0,70,0.00,,,0.00,meteohub,2013-01-13 03:35:00,
2013-01-12 19:40:00,41.0,32.0,29.59,WSW,248,0.0,0.0,70,0.00,,,0.00,meteohub,2013-01-13 03:40:00,
2013-01-12 19:45:00,40.8,32.5,29.59,WSW,248,0.0,0.0,72,0.00,,,0.00,meteohub,2013-01-13 03:45:00,
2013-01-12 19:51:00,40.6,32.4,29.59,WSW,248,0.0,0.0,72,0.00,,,0.00,meteohub,2013-01-13 03:51:00,
2013-01-12 19:56:00,40.6,32.4,29.59,WSW,248,0.0,0.0,72,0.00,,,0.00,meteohub,2013-01-13 03:56:00,
2013-01-12 20:01:00,40.6,32.4,29.59,WSW,248,0.0,0.0,72,0.00,,,0.00,meteohub,2013-01-13 04:01:00,
2013-01-12 20:06:00,40.6,32.4,29.59,WSW,248,0.0,0.0,72,0.00,,,0.00,meteohub,2013-01-13 04:06:00,
2013-01-12 20:11:00,40.5,32.2,29.59,WSW,248,0.0,0.0,72,0.00,,,0.00,meteohub,2013-01-13 04:11:00,
2013-01-12 20:16:00,40.5,32.2,29.60,WSW,248,0.0,0.0,72,0.00,,,0.00,meteohub,2013-01-13 04:16:00,
2013-01-12 20:21:00,40.3,32.0,29.60,WSW,248,0.0,0.0,72,0.00,,,0.00,meteohub,2013-01-13 04:21:00,
2013-01-12 20:26:00,40.3,31.6,29.60,WSW,248,0.0,0.0,71,0.00,,,0.00,meteohub,2013-01-13 04:26:00,
2013-01-12 20:31:00,40.3,31.6,29.60,WSW,248,0.0,0.0,71,0.00,,,0.00,meteohub,2013-01-13 04:31:00,
2013-01-12 20:36:00,40.1,31.5,29.60,WSW,248,0.0,0.0,71,0.00,,,0.00,meteohub,2013-01-13 04:36:00,
2013-01-12 20:41:00,39.9,31.6,29.60,WSW,248,0.0,0.0,72,0.00,,,0.00,meteohub,2013-01-13 04:41:00,
2013-01-12 20:46:00,39.7,31.5,29.60,WSW,248,0.0,0.0,72,0.00,,,0.00,meteohub,2013-01-13 04:46:00,
2013-01-12 20:52:00,39.7,31.5,29.60,WSW,248,0.0,0.0,72,0.00,,,0.00,meteohub,2013-01-13 04:52:00,
2013-01-12 20:57:00,39.4,31.1,29.60,WSW,248,0.0,0.0,72,0.00,,,0.00,meteohub,2013-01-13 04:57:00,
2013-01-12 21:00:00,39.4,31.1,29.60,WSW,248,0.0,0.0,72,0.00,,,0.00,meteohub,2013-01-13 05:00:00,
2013-01-12 21:02:00,39.2,30.9,29.60,WSW,248,0.0,0.0,72,0.00,,,0.00,meteohub,2013-01-13 05:02:00,
2013-01-12 21:03:00,39.2,31.3,29.60,WSW,248,0.0,0.0,73,0.00,,,0.00,meteohub,2013-01-13 05:03:00,
2013-01-12 21:04:00,39.2,31.3,29.60,WSW,248,0.0,0.0,73,0.00,,,0.00,meteohub,2013-01-13 05:04:00,
2013-01-12 21:09:00,39.0,31.5,29.60,WSW,248,0.0,0.0,74,0.00,,,0.00,meteohub,2013-01-13 05:09:00,
2013-01-12 21:14:00,38.8,31.3,29.59,WSW,248,0.0,0.0,74,0.00,,,0.00,meteohub,2013-01-13 05:14:00,
2013-01-12 21:19:00,38.5,30.9,29.59,SW,225,0.0,0.0,74,0.00,,,0.00,meteohub,2013-01-13 05:19:00,
2013-01-12 21:24:00,38.1,30.6,29.59,West,270,0.0,0.0,74,0.00,,,0.00,meteohub,2013-01-13 05:24:00,
2013-01-12 21:29:00,37.9,30.4,29.59,NW,315,0.0,0.0,74,0.00,,,0.00,meteohub,2013-01-13 05:29:00,
2013-01-12 21:34:00,37.8,30.2,29.60,NW,315,0.0,0.0,74,0.00,,,0.00,meteohub,2013-01-13 05:34:00,
2013-01-12 21:39:00,37.6,30.4,29.60,NW,315,0.0,0.0,75,0.00,,,0.00,meteohub,2013-01-13 05:39:00,
2013-01-12 21:44:00,37.4,30.2,29.59,NW,315,0.0,0.0,75,0.00,,,0.00,meteohub,2013-01-13 05:44:00,
2013-01-12 21:49:00,37.2,28.8,29.59,NW,315,0.0,0.0,71,0.00,,,0.00,meteohub,2013-01-13 05:49:00,
2013-01-12 21:54:00,37.4,30.2,29.60,NW,315,0.0,0.0,75,0.00,,,0.00,meteohub,2013-01-13 05:54:00,
2013-01-12 21:59:00,37.2,28.8,29.60,NW,315,0.0,0.0,71,0.00,,,0.00,meteohub,2013-01-13 05:59:00,
2013-01-12 22:04:00,37.2,28.8,29.60,NW,315,0.0,0.0,71,0.00,,,0.00,meteohub,2013-01-13 06:04:00,
2013-01-12 22:10:00,36.7,28.2,29.60,NW,315,0.0,0.0,71,0.00,,,0.00,meteohub,2013-01-13 06:10:00,
2013-01-12 22:15:00,36.5,28.0,29.60,NW,315,0.0,0.0,71,0.00,,,0.00,meteohub,2013-01-13 06:15:00,
2013-01-12 22:20:00,36.1,27.7,29.60,NW,315,0.0,0.0,71,0.00,,,0.00,meteohub,2013-01-13 06:20:00,
2013-01-12 22:25:00,36.1,27.7,29.61,NW,315,0.0,0.0,71,0.00,,,0.00,meteohub,2013-01-13 06:25:00,
2013-01-12 22:30:00,36.0,27.5,29.60,NW,315,0.0,0.0,71,0.00,,,0.00,meteohub,2013-01-13 06:30:00,
2013-01-12 22:35:00,36.0,27.5,29.61,NW,315,0.0,0.0,71,0.00,,,0.00,meteohub,2013-01-13 06:35:00,
2013-01-12 22:40:00,35.8,27.3,29.61,SW,225,0.0,0.0,71,0.00,,,0.00,meteohub,2013-01-13 06:40:00,
2013-01-12 22:45:00,35.6,27.1,29.61,SW,225,0.0,0.0,71,0.00,,,0.00,meteohub,2013-01-13 06:45:00,
2013-01-12 22:50:00,35.6,27.1,29.61,WNW,293,0.0,0.0,71,0.00,,,0.00,meteohub,2013-01-13 06:50:00,
2013-01-12 22:55:00,35.4,27.3,29.62,North,0,0.0,0.0,72,0.00,,,0.00,meteohub,2013-01-13 06:55:00,
2013-01-12 23:00:00,35.4,27.3,29.62,North,0,0.0,0.0,72,0.00,,,0.00,meteohub,2013-01-13 07:00:00,
2013-01-12 23:05:00,35.2,27.1,29.62,North,0,0.0,1.0,72,0.00,,,0.00,meteohub,2013-01-13 07:05:00,
2013-01-12 23:10:00,35.1,27.0,29.62,North,0,0.0,1.0,72,0.00,,,0.00,meteohub,2013-01-13 07:10:00,
2013-01-12 23:15:00,34.9,26.8,29.62,North,0,0.0,0.0,72,0.00,,,0.00,meteohub,2013-01-13 07:15:00,
2013-01-12 23:20:00,34.7,26.6,29.62,North,0,1.0,1.0,72,0.00,,,0.00,meteohub,2013-01-13 07:20:00,
2013-01-12 23:25:00,34.5,26.4,29.62,North,0,0.0,1.0,72,0.00,,,0.00,meteohub,2013-01-13 07:25:00,
2013-01-12 23:30:00,34.2,26.1,29.63,North,0,0.0,1.0,72,0.00,,,0.00,meteohub,2013-01-13 07:30:00,
2013-01-12 23:35:00,34.2,26.1,29.63,North,0,0.0,1.0,72,0.00,,,0.00,meteohub,2013-01-13 07:35:00,
2013-01-12 23:40:00,33.8,25.7,29.63,North,0,1.0,1.0,72,0.00,,,0.00,meteohub,2013-01-13 07:40:00,
2013-01-12 23:46:00,33.6,25.9,29.64,North,0,0.0,1.0,73,0.00,,,0.00,meteohub,2013-01-13 07:46:00,
2013-01-12 23:51:00,33.4,25.7,29.64,North,0,0.0,1.0,73,0.00,,,0.00,meteohub,2013-01-13 07:51:00,
2013-01-12 23:56:00,33.1,25.7,29.64,North,0,0.0,1.0,74,0.00,,,0.00,meteohub,2013-01-13 07:56:00,